This is the latest recevied weather packets stored in our database for station/object K6POO-1. If no packets are shown the sender has not sent any weather packets the latest 10 day(s).
| Time | Temp. | Humidity | Pressure | Rain* | Wind** | Luminosity | Snow |
|---|---|---|---|---|---|---|---|
| 1788405612 | 16.67° C | 83% | 1015.9 hPa | 0 mm | - | 0 W/m² | - |
| 1788405307 | 17.22° C | 82% | 1015.8 hPa | 0 mm | - | 0 W/m² | - |
| 1788405002 | 17.22° C | 81% | 1015.6 hPa | 0 mm | - | 0 W/m² | - |
| 1788404697 | 17.22° C | 81% | 1015.7 hPa | 0 mm | - | 0 W/m² | - |
| 1788404393 | 17.22° C | 80% | 1015.5 hPa | 0 mm | - | 0 W/m² | - |
| 1788404083 | 17.22° C | 79% | 1015.6 hPa | 0 mm | - | 0 W/m² | - |
| 1788403778 | 17.22° C | 80% | 1015.7 hPa | 0 mm | - | 1 W/m² | - |
| 1788403488 | 17.22° C | 80% | 1015.8 hPa | 0 mm | - | 2 W/m² | - |
| 1788403166 | 17.22° C | 79% | 1015.5 hPa | 0 mm | - | 4 W/m² | - |
| 1788402863 | 17.22° C | 79% | 1015.7 hPa | 0 mm | - | 6 W/m² | - |
| 1788402558 | 17.22° C | 78% | 1015.8 hPa | 0 mm | - | 10 W/m² | - |
| 1788402256 | 17.22° C | 79% | 1016.1 hPa | 0 mm | - | 15 W/m² | - |
| 1788401955 | 17.22° C | 79% | 1015.8 hPa | 0 mm | - | 19 W/m² | - |
| 1788401651 | 17.22° C | 80% | 1015.9 hPa | 0 mm | - | 22 W/m² | - |
| 1788401351 | 17.22° C | 80% | 1016.1 hPa | 0 mm | - | 26 W/m² | - |
| 1788401047 | 17.22° C | 81% | 1016 hPa | 0 mm | - | 29 W/m² | - |
| 1788400741 | 17.22° C | 80% | 1016 hPa | 0 mm | - | 33 W/m² | - |
| 1788400436 | 17.78° C | 79% | 1016.2 hPa | 0 mm | - | 36 W/m² | - |
| 1788400131 | 17.78° C | 79% | 1016.2 hPa | 0 mm | - | 38 W/m² | - |
| 1788399825 | 17.78° C | 79% | 1016.2 hPa | 0 mm | - | 41 W/m² | - |
| 1788399520 | 17.78° C | 77% | 1016.4 hPa | 0 mm | - | 44 W/m² | - |
| 1788399219 | 18.33° C | 76% | 1016.4 hPa | 0 mm | - | 46 W/m² | - |
| 1788398919 | 18.33° C | 74% | 1016.4 hPa | 0 mm | - | 52 W/m² | - |
| 1788398613 | 18.89° C | 74% | 1016.4 hPa | 0 mm | - | 56 W/m² | - |
| 1788398307 | 18.89° C | 73% | 1016.4 hPa | 0 mm | - | 61 W/m² | - |
* Rain latest hour (hover to see other rain measurements)
** Current wind speed in m/s (hover to see current wind gust speed)